Mandan, ND

2:08 PM CDT on April 26, 2017 (GMT -0500)
Mandan

Weather History for KY19 - March, 2014

Change the Weather History Date:

Monday, March 10, 2014

  Actual Average (KBIS) Record (KBIS)
Temperature  
Mean Temperature 42 °F -  
Max Temperature 48 °F 38 °F 72 °F (2012)
Min Temperature 35 °F 16 °F -31 °F (1948)
Degree Days  
Heating Degree Days 24    
Moisture  
Dew Point 35 °F    
Average Humidity 77    
Maximum Humidity 87    
Minimum Humidity 61    
Precipitation  
Precipitation 0.00 in - - ()
Sea Level Pressure  
Sea Level Pressure 29.74 in    
Wind  
Wind Speed 10 mph (NW)    
Max Wind Speed 16 mph    
Max Gust Speed -    
Visibility 10 miles    
Events      
Averages and records for this station are not official NWS values.
T = Trace of Precipitation, MM = Missing Value Source: NWS Daily Summary

Daily Weather History Graph

Daily Weather History Graph

Search for Another Location

Airport or City:

Trip Planner

Search our weather history database for the weather conditions in past years. The results will help you decide how hot, cold, wet, or windy it might be!

Date:

Astronomy

Mar. 10, 2014 Rise Set
Actual Time 8:06 AM CDT 7:42 PM CDT
Civil Twilight 7:35 AM CDT 8:12 PM CDT
Nautical Twilight 7:00 AM CDT 8:47 PM CDT
Astronomical Twilight 6:25 AM CDT 9:23 PM CDT
Moon 2:12 PM CDT (3/10) 4:34 AM CDT (3/10)
Length of Visible Light 12h 36m
Length of Day
11h 36m
Waxing Gibbous, 70% of the Moon is Illuminated
Mar 10
Waxing Gibbous
Mar 16
Full
Mar 23
Last Quarter
Mar 30
New
Apr 7
First Quarter

Hourly Weather History & Observations

Time (CDT) Temp. Windchill Dew Point Humidity Pressure Visibility Wind Dir Wind Speed Gust Speed Precip Events Conditions
12:15 AM 39.2 °F 32.5 °F 35.6 °F 87% 29.69 in 10.0 mi West 10.4 mph - N/A   Clear
12:35 AM 41.0 °F 34.7 °F 35.6 °F 81% 29.69 in 10.0 mi West 10.4 mph - N/A   Clear
12:55 AM 41.0 °F 34.3 °F 35.6 °F 81% 29.68 in 10.0 mi West 11.5 mph - N/A   Clear
1:15 AM 41.0 °F 35.8 °F 35.6 °F 81% 29.68 in 10.0 mi WSW 8.1 mph - N/A   Clear
1:35 AM 39.2 °F 35.0 °F 33.8 °F 81% 29.68 in 10.0 mi WSW 5.8 mph - N/A   Clear
1:55 AM 39.2 °F 35.0 °F 35.6 °F 87% 29.69 in 10.0 mi WSW 5.8 mph - N/A   Clear
2:15 AM 39.2 °F 34.2 °F 33.8 °F 81% 29.69 in 10.0 mi West 6.9 mph - N/A   Clear
2:35 AM 41.0 °F 35.2 °F 35.6 °F 81% 29.69 in 10.0 mi WNW 9.2 mph - N/A   Clear
2:55 AM 41.0 °F 33.9 °F 35.6 °F 81% 29.68 in 10.0 mi West 12.7 mph - N/A   Clear
3:15 AM 41.0 °F 32.8 °F 35.6 °F 81% 29.69 in 10.0 mi West 16.1 mph - N/A   Clear
3:35 AM 42.8 °F 35.8 °F 35.6 °F 76% 29.69 in 10.0 mi West 13.8 mph - N/A   Clear
3:55 AM 41.0 °F 33.5 °F 35.6 °F 81% 29.69 in 10.0 mi WNW 13.8 mph - N/A   Clear
4:15 AM 41.0 °F 33.5 °F 35.6 °F 81% 29.68 in 10.0 mi WNW 13.8 mph - N/A   Clear
4:35 AM 41.0 °F 34.7 °F 35.6 °F 81% 29.68 in 10.0 mi WNW 10.4 mph - N/A   Clear
4:55 AM 39.2 °F 32.0 °F 33.8 °F 81% 29.68 in 10.0 mi West 11.5 mph - N/A   Clear
5:15 AM 37.4 °F 29.8 °F 33.8 °F 87% 29.68 in 10.0 mi West 11.5 mph - N/A   Clear
5:35 AM 39.2 °F 31.2 °F 35.6 °F 87% 29.69 in 10.0 mi WNW 13.8 mph - N/A   Clear
5:55 AM 41.0 °F 33.5 °F 35.6 °F 81% 29.70 in 10.0 mi WNW 13.8 mph - N/A   Clear
6:15 AM 41.0 °F 33.5 °F 35.6 °F 81% 29.70 in 10.0 mi NW 13.8 mph - N/A   Clear
6:35 AM 41.0 °F 33.5 °F 35.6 °F 81% 29.71 in 10.0 mi WNW 13.8 mph - N/A   Clear
6:55 AM 39.2 °F 31.6 °F 35.6 °F 87% 29.71 in 10.0 mi WNW 12.7 mph - N/A   Clear
7:15 AM 37.4 °F 28.5 °F 33.8 °F 87% 29.71 in 10.0 mi WNW 15.0 mph - N/A   Clear
7:35 AM 39.2 °F 30.8 °F 35.6 °F 87% 29.71 in 10.0 mi WNW 15.0 mph - N/A   Clear
7:55 AM 39.2 °F 31.6 °F 35.6 °F 87% 29.71 in 10.0 mi WNW 12.7 mph - N/A   Clear
8:15 AM 39.2 °F 31.6 °F 35.6 °F 87% 29.72 in 10.0 mi WNW 12.7 mph - N/A   Clear
8:35 AM 39.2 °F 33.0 °F 35.6 °F 87% 29.73 in 10.0 mi NW 9.2 mph - N/A   Clear
8:55 AM 39.2 °F - 35.6 °F 87% 29.74 in 10.0 mi Calm Calm - N/A   Clear
9:15 AM 39.2 °F 35.9 °F 35.6 °F 87% 29.74 in 10.0 mi West 4.6 mph - N/A   Clear
9:35 AM 41.0 °F 35.2 °F 35.6 °F 81% 29.76 in 10.0 mi West 9.2 mph - N/A   Clear
9:55 AM 41.0 °F 35.2 °F 37.4 °F 87% 29.75 in 10.0 mi WNW 9.2 mph - N/A   Clear
10:15 AM 42.8 °F 37.0 °F 37.4 °F 81% 29.76 in 10.0 mi WNW 10.4 mph - N/A   Clear
10:35 AM 42.8 °F 37.5 °F 37.4 °F 81% 29.77 in 10.0 mi West 9.2 mph - N/A   Clear
10:55 AM 42.8 °F 37.0 °F 37.4 °F 81% 29.77 in 10.0 mi WNW 10.4 mph - N/A   Clear
11:15 AM 44.6 °F 38.8 °F 37.4 °F 76% 29.76 in 10.0 mi NW 11.5 mph - N/A   Clear
11:35 AM 44.6 °F 38.4 °F 37.4 °F 76% 29.76 in 10.0 mi NW 12.7 mph - N/A   Clear
11:55 AM 46.4 °F 41.5 °F 37.4 °F 71% 29.76 in 10.0 mi WNW 10.4 mph - N/A   Clear
12:15 PM 46.4 °F 41.5 °F 37.4 °F 71% 29.75 in 10.0 mi NW 10.4 mph - N/A   Clear
12:35 PM 48.2 °F - 37.4 °F 66% 29.76 in 10.0 mi NW 11.5 mph - N/A   Clear
12:55 PM 48.2 °F - 37.4 °F 66% 29.76 in 10.0 mi WNW 8.1 mph - N/A   Partly Cloudy
1:15 PM 48.2 °F - 37.4 °F 66% 29.77 in 10.0 mi WNW 8.1 mph - N/A   Partly Cloudy
1:35 PM 48.2 °F - 35.6 °F 62% 29.77 in 10.0 mi WNW 10.4 mph - N/A   Partly Cloudy
1:55 PM 48.2 °F - 35.6 °F 62% 29.76 in 10.0 mi NW 10.4 mph - N/A   Clear
2:15 PM 46.4 °F 41.5 °F 35.6 °F 66% 29.75 in 10.0 mi WNW 10.4 mph - N/A   Scattered Clouds
2:35 PM 46.4 °F 42.9 °F 37.4 °F 71% 29.75 in 10.0 mi NW 6.9 mph - N/A   Scattered Clouds
2:55 PM 46.4 °F 42.4 °F 35.6 °F 66% 29.74 in 10.0 mi NW 8.1 mph - N/A   Mostly Cloudy
3:15 PM 46.4 °F 42.9 °F 35.6 °F 66% 29.74 in 10.0 mi NW 6.9 mph - N/A   Mostly Cloudy
3:35 PM 46.4 °F 41.9 °F 35.6 °F 66% 29.74 in 10.0 mi WNW 9.2 mph - N/A   Partly Cloudy
3:55 PM 46.4 °F 42.4 °F 35.6 °F 66% 29.74 in 10.0 mi NW 8.1 mph - N/A   Clear
4:15 PM 46.4 °F 41.9 °F 35.6 °F 66% 29.74 in 10.0 mi NW 9.2 mph - N/A   Clear
4:35 PM 46.4 °F 41.9 °F 35.6 °F 66% 29.74 in 10.0 mi NNW 9.2 mph - N/A   Partly Cloudy
4:55 PM 44.6 °F 43.1 °F 35.6 °F 71% 29.74 in 10.0 mi NW 3.5 mph - N/A   Scattered Clouds
5:15 PM 44.6 °F 41.4 °F 35.6 °F 71% 29.73 in 10.0 mi NNW 5.8 mph - N/A   Mostly Cloudy
5:35 PM 44.6 °F 40.7 °F 35.6 °F 71% 29.73 in 10.0 mi North 6.9 mph - N/A   Mostly Cloudy
5:55 PM 44.6 °F 42.2 °F 33.8 °F 66% 29.73 in 10.0 mi NNW 4.6 mph - N/A   Mostly Cloudy
6:15 PM 44.6 °F 41.4 °F 32.0 °F 61% 29.74 in 10.0 mi NW 5.8 mph - N/A   Mostly Cloudy
6:35 PM 44.6 °F 40.2 °F 32.0 °F 61% 29.75 in 10.0 mi NW 8.1 mph - N/A   Mostly Cloudy
6:55 PM 42.8 °F 37.5 °F 32.0 °F 66% 29.76 in 10.0 mi NW 9.2 mph - N/A   Overcast
7:15 PM 41.0 °F 36.4 °F 32.0 °F 70% 29.76 in 10.0 mi NW 6.9 mph - N/A   Overcast
7:35 PM 41.0 °F 37.1 °F 32.0 °F 70% 29.76 in 10.0 mi NW 5.8 mph - N/A   Overcast
7:55 PM 39.2 °F 34.2 °F 32.0 °F 75% 29.77 in 10.0 mi NNW 6.9 mph - N/A   Overcast
8:15 PM 39.2 °F 35.0 °F 32.0 °F 75% 29.77 in 10.0 mi NNW 5.8 mph - N/A   Overcast
8:35 PM 39.2 °F 37.0 °F 32.0 °F 75% 29.77 in 10.0 mi NNW 3.5 mph - N/A   Overcast
8:55 PM 39.2 °F 33.6 °F 32.0 °F 75% 29.78 in 10.0 mi NNW 8.1 mph - N/A   Overcast
9:15 PM 39.2 °F 35.0 °F 32.0 °F 75% 29.78 in 10.0 mi NNW 5.8 mph - N/A   Overcast
9:35 PM 37.4 °F 31.4 °F 32.0 °F 81% 29.79 in 10.0 mi NNW 8.1 mph - N/A   Overcast
9:55 PM 37.4 °F 32.1 °F 32.0 °F 81% 29.79 in 10.0 mi NNW 6.9 mph - N/A   Overcast
10:15 PM 37.4 °F 32.8 °F 32.0 °F 81% 29.79 in 10.0 mi NNW 5.8 mph - N/A   Overcast
10:35 PM 37.4 °F 32.1 °F 32.0 °F 81% 29.79 in 10.0 mi NW 6.9 mph - N/A   Overcast
10:55 PM 37.4 °F 31.4 °F 32.0 °F 81% 29.79 in 10.0 mi NNW 8.1 mph - N/A   Overcast
11:15 PM 35.6 °F 29.2 °F 32.0 °F 87% 29.79 in 10.0 mi North 8.1 mph - N/A   Overcast
11:35 PM 37.4 °F 32.1 °F 32.0 °F 81% 29.79 in 10.0 mi North 6.9 mph - N/A   Overcast
11:55 PM 37.4 °F 32.1 °F 30.2 °F 75% 29.80 in 10.0 mi NNW 6.9 mph - N/A   Overcast